AKDT,Max TemperatureF,Mean TemperatureF,Min TemperatureF,Max Dew PointF,MeanDew PointF,Min DewpointF,Max Humidity, Mean Humidity, Min Humidity, Max Sea Level PressureIn, Mean Sea Level PressureIn, Min Sea Level PressureIn, Max VisibilityMiles, Mean VisibilityMiles, Min VisibilityMiles, Max Wind SpeedMPH, Mean Wind SpeedMPH, Max Gust SpeedMPH,PrecipitationIn, CloudCover, Events, WindDirDegrees
2013-7-1,57,52,46,50,46,40,100,85,53,29.87,29.73,29.57,10,9,6,15,4,21,0.43,8,Rain,36
2013-7-2,55,51,48,48,45,42,100,85,69,29.91,29.74,29.60,10,10,10,18,10,,0.01,8,,206
2013-7-3,54,51,48,47,46,44,96,88,69,30.04,29.99,29.91,10,10,9,13,8,,0.00,8,,212
2013-7-4,51,48,46,48,46,44,100,87,76,30.08,30.05,30.01,10,10,8,7,2,,0.17,8,Rain,195
2013-7-5,57,52,48,50,47,45,97,82,64,30.10,30.06,30.03,10,10,10,10,2,,0.02,8,Rain,58
2013-7-6,60,54,48,50,48,45,97,80,62,30.03,29.92,29.75,10,10,10,8,4,,0.06,8,Rain,36
2013-7-7,55,52,46,52,50,45,100,93,84,29.73,29.64,29.59,10,8,2,15,8,20,0.36,8,Rain,317
2013-7-8,57,50,44,49,46,43,100,88,74,29.85,29.77,29.70,10,10,10,16,9,24,0.01,3,,202
2013-7-9,57,52,48,49,46,43,86,75,64,30.04,29.97,29.85,10,10,10,16,8,,0.00,3,,200
2013-7-10,68,60,52,49,46,45,83,66,47,30.06,30.02,29.95,10,10,10,9,6,,0.00,0,,203
2013-7-11,75,60,46,50,47,44,96,62,33,29.96,29.95,29.92,10,10,10,9,3,16,0.00,1,,332
2013-7-12,71,60,50,51,47,44,86,67,41,29.98,29.96,29.94,10,10,10,17,7,,0.00,1,,208
2013-7-13,57,54,50,51,49,47,96,83,72,30.19,30.08,29.99,10,10,10,18,10,22,0.00,3,,208
2013-7-14,60,55,50,50,49,48,96,83,67,30.34,30.30,30.19,10,10,10,17,13,22,0.00,2,,204
2013-7-15,59,52,46,52,49,45,96,86,78,30.36,30.32,30.27,10,10,10,14,7,,0.00,7,,213
2013-7-16,63,56,51,52,51,48,97,85,67,30.27,30.22,30.16,10,10,10,9,4,,0.00,5,,212
2013-7-17,62,56,50,54,53,49,100,87,75,30.15,30.12,30.09,10,10,10,15,8,22,0.00,3,,213
2013-7-18,66,58,51,56,54,50,97,83,73,30.17,30.14,30.11,10,9,1,25,9,34,0.21,2,,218
2013-7-19,66,62,57,54,50,48,75,66,58,30.20,30.16,30.13,10,10,9,29,18,34,0.00,0,,195
2013-7-20,68,60,53,52,49,47,83,68,49,30.16,30.12,30.08,10,10,10,12,8,,0.00,1,,196
2013-7-21,72,58,46,50,47,45,100,63,39,30.09,30.03,29.99,10,10,10,12,4,,0.00,1,,282
2013-7-22,75,62,52,49,46,43,74,54,35,30.10,30.07,30.03,10,10,10,17,8,24,0.00,0,,300
2013-7-23,70,58,48,52,49,43,96,71,54,30.12,30.09,30.05,10,10,9,9,4,,0.00,0,,213
2013-7-24,73,58,44,53,50,45,100,81,45,30.06,30.01,29.96,10,7,0,9,3,,0.00,0,Fog,218
2013-7-25,63,58,53,56,54,50,100,85,72,30.09,30.02,29.96,10,9,1,15,5,22,1.23,4,Rain,240
2013-7-26,62,57,53,61,55,53,100,94,81,30.31,30.20,30.07,10,9,2,14,7,,0.71,5,Rain,213
2013-7-27,59,54,50,54,53,50,100,98,87,30.38,30.34,30.31,10,5,0,9,8,,0.01,4,Fog,209
2013-7-28,68,55,44,56,51,45,100,90,66,30.32,30.27,30.19,10,8,0,15,3,,0.00,1,Fog,214
2013-7-29,61,54,48,55,52,48,100,96,83,30.21,30.19,30.16,10,6,0,12,5,,0.00,3,Fog,213
2013-7-30,62,57,53,54,53,52,97,89,78,30.24,30.21,30.19,10,10,10,13,8,,0.00,0,,209
2013-7-31,66,56,52,54,53,52,100,92,80,30.22,30.20,30.14,10,10,5,17,9,23,0.05,0,,212